Date,TemperatureHighF,TemperatureAvgF,TemperatureLowF,DewpointHighF,DewpointAvgF,DewpointLowF,HumidityHigh,HumidityAvg,HumidityLow,PressureMaxIn,PressureMinIn,WindSpeedMaxMPH,WindSpeedAvgMPH,GustSpeedMaxMPH,PrecipitationSumIn
2014-1-1,23.2,20.1,16.2,17.9,15.6,11.8,86,83,77,30.32,30.14,10,4,10,0.00
2014-1-2,21.7,18.8,13.8,16.5,13.8,9.6,85,81,70,30.36,30.06,19,8,19,0.00
2014-1-3,19.2,11.8,-2.7,12.4,5.7,-7.4,84,76,67,30.45,29.97,32,6,32,0.00
2014-1-4,36.3,29.6,19.6,29.3,22.5,12.6,89,75,63,29.99,29.87,29,8,29,0.02
2014-1-5,32.7,25.5,4.5,29.8,22.8,1.2,90,89,86,29.99,29.82,34,11,34,0.00
2014-1-6,4.5,-7.4,-11.4,0.9,-11.3,-16.1,88,83,80,30.27,29.98,40,15,40,0.00
2014-1-7,6.8,-1.9,-11.9,3.7,-5.7,-16.6,89,83,79,30.37,30.22,26,7,26,0.00
2014-1-8,23.5,6.6,-5.4,21.4,3.2,-9.8,91,85,81,30.47,30.26,9,1,9,0.00
2014-1-9,28.6,15.7,-4.2,26.1,12.7,-8.3,91,88,82,30.49,30.15,14,3,14,0.00
2014-1-10,42.6,36.5,28.6,39.4,33.7,26.1,91,89,88,30.15,29.57,18,6,18,0.84
2014-1-11,42.4,37.3,34.2,39.0,33.8,29.5,88,87,83,29.78,29.45,21,6,21,0.14
2014-1-12,45.5,37.0,30.7,35.6,31.2,26.4,85,80,68,29.95,29.65,28,9,28,0.00
2014-1-13,52.7,42.2,28.4,40.3,34.4,24.4,86,74,59,29.78,29.58,22,7,22,0.00
2014-1-14,39.7,30.0,23.2,32.7,24.1,18.5,88,79,67,29.87,29.65,24,8,24,0.00
2014-1-15,27.5,21.8,16.5,18.9,14.9,10.9,81,75,63,30.11,29.86,18,6,18,0.00
2014-1-16,34.7,28.3,19.2,30.9,23.0,14.0,88,80,69,29.90,29.54,27,9,27,0.00
2014-1-17,23.9,18.8,14.2,15.6,11.9,9.3,83,74,67,29.98,29.70,14,5,14,0.00
2014-1-18,21.7,17.2,9.1,17.6,12.8,4.8,88,83,76,29.95,29.76,15,4,15,0.00
2014-1-19,39.4,27.7,12.7,31.8,22.2,9.3,88,80,69,29.86,29.57,25,8,25,0.13
2014-1-20,40.1,33.2,22.5,31.6,27.7,16.3,85,80,68,29.99,29.58,25,7,25,0.00
2014-1-21,21.9,15.0,1.2,16.2,7.9,-4.0,83,73,65,30.29,29.99,30,5,30,0.00
2014-1-22,18.1,8.9,-2.0,12.6,2.6,-7.1,84,75,63,30.18,29.90,26,7,26,0.00
2014-1-23,16.7,5.7,-3.5,6.3,-2.5,-9.4,75,68,60,30.54,30.12,27,7,27,0.00
2014-1-24,24.6,11.6,-6.3,21.4,4.2,-11.9,87,72,56,30.51,29.53,37,13,37,0.03
2014-1-25,32.9,21.3,6.6,30.0,10.5,-2.6,89,64,44,29.86,29.42,28,10,28,0.00
2014-1-26,35.1,21.0,8.1,26.2,14.2,-0.6,87,75,61,29.83,29.47,32,9,32,0.00
2014-1-27,11.1,1.9,-9.2,3.2,-6.9,-17.0,73,66,58,30.39,29.76,27,10,27,0.00
2014-1-28,10.6,-3.3,-14.3,-2.4,-11.4,-20.4,77,68,53,30.44,30.22,18,5,18,0.00
2014-1-29,26.8,12.2,-6.3,10.4,2.0,-12.1,81,65,46,30.28,30.05,34,6,34,0.00
2014-1-30,34.7,28.0,19.9,29.7,18.6,8.6,83,68,54,30.05,29.72,33,12,33,0.00
2014-1-31,34.2,26.8,25.0,28.4,21.0,18.1,88,79,68,30.20,29.89,13,2,13,0.00
2014-2-1,33.4,30.0,25.7,30.4,27.1,22.6,90,89,86,30.06,29.82,13,3,13,0.00
2014-2-2,28.6,19.8,3.9,25.2,14.2,-0.9,87,79,71,30.32,30.05,16,5,16,0.00
2014-2-3,32.9,11.7,-3.6,21.7,3.3,-99.9,89,71,44,30.40,30.25,12,-3,12,0.14
2014-2-4,28.2,18.4,6.1,19.0,11.6,1.0,86,75,55,30.43,30.03,20,3,20,0.00
2014-2-5,27.9,23.0,8.4,25.5,19.8,3.4,91,87,81,30.41,29.96,30,10,30,0.00
2014-2-6,13.8,5.6,-4.5,8.2,0.2,-9.8,86,78,68,30.47,30.35,17,5,17,0.00
2014-2-7,18.5,5.4,-8.3,8.4,-1.1,-13.5,83,74,61,30.44,30.32,17,4,17,0.00
2014-2-8,19.2,13.5,4.5,14.0,8.4,-0.9,86,80,75,30.33,30.11,10,3,10,0.00
2014-2-9,23.5,16.8,3.4,16.2,11.1,-1.7,88,78,65,30.24,30.07,14,3,14,0.03
2014-2-10,18.1,4.1,-8.9,6.6,-3.0,-14.4,83,72,59,30.44,30.24,14,2,14,0.00
2014-2-11,23.9,4.3,-11.4,11.5,-3.9,-17.1,84,69,51,30.55,30.35,10,2,10,0.00
2014-2-12,28.9,12.4,-1.1,14.7,5.0,-6.5,83,73,54,30.35,30.01,13,3,13,0.00
2014-2-13,33.6,21.8,6.8,27.5,13.8,2.1,84,72,56,30.01,29.54,24,6,24,0.00
2014-2-14,26.8,22.1,14.0,18.9,15.2,8.8,81,75,65,29.91,29.59,16,5,16,0.00
2014-2-15,34.0,20.1,11.7,23.9,13.0,6.4,83,74,57,30.14,29.91,15,4,15,0.00
2014-2-16,27.9,23.0,17.4,21.9,17.9,12.9,86,81,71,30.27,29.92,19,5,19,0.03
2014-2-17,31.1,24.6,17.6,27.1,20.6,13.8,91,84,73,30.26,29.69,24,7,24,0.00
2014-2-18,49.8,38.4,19.9,34.3,29.4,16.0,90,71,53,29.98,29.67,28,8,28,0.19
2014-2-19,54.1,39.8,31.1,35.4,31.0,26.8,87,72,46,30.05,29.66,16,4,16,0.00
2014-2-20,52.0,40.6,35.1,49.6,37.2,30.9,92,88,79,29.96,29.31,34,7,34,0.95
2014-2-21,38.7,35.8,31.8,32.7,26.4,19.8,86,69,48,29.83,29.44,32,12,32,0.00
2014-2-22,42.3,32.6,23.9,23.2,18.5,13.3,73,56,43,30.08,29.83,14,4,14,0.00
2014-2-23,35.1,25.3,18.1,17.6,13.0,9.0,78,60,41,30.25,30.03,18,5,18,0.00
2014-2-24,33.3,22.1,12.9,14.0,10.2,5.7,74,61,44,30.31,30.18,17,5,17,0.00
2014-2-25,31.5,21.0,11.1,16.7,10.1,0.7,72,63,53,30.28,30.10,23,6,23,0.00
2014-2-26,19.6,13.9,5.2,8.6,2.1,-3.3,68,59,49,30.20,29.67,23,9,23,0.00
2014-2-27,21.0,11.5,0.9,10.0,-2.9,-99.9,73,55,46,30.19,29.66,34,-12,34,0.00
2014-2-28,31.1,19.0,0.3,18.5,8.4,-5.8,79,64,49,30.25,30.00,20,6,20,0.00
2014-3-1,30.7,24.6,19.2,26.1,18.6,15.4,86,78,61,30.29,30.00,17,6,17,0.00
2014-3-2,19.2,14.7,8.4,15.8,10.4,1.0,90,83,69,30.40,30.26,21,9,21,0.00
2014-3-3,21.4,12.8,6.8,11.1,5.0,0.1,80,71,58,30.53,30.34,16,3,16,0.08
2014-3-4,33.4,18.6,8.8,15.6,9.3,3.6,81,68,46,30.35,30.18,14,2,14,0.00
2014-3-5,28.2,22.7,13.1,20.8,16.6,7.0,85,77,70,30.44,30.23,16,4,16,0.03
2014-3-6,39.9,25.7,14.5,21.4,15.6,8.4,80,66,46,30.40,30.09,10,3,10,0.03
2014-3-7,50.0,34.7,17.1,33.8,25.0,13.1,86,69,46,30.09,29.90,19,4,19,0.00
2014-3-8,39.4,29.7,15.3,33.8,25.3,11.5,89,84,76,30.25,29.96,22,7,22,0.03
2014-3-9,44.1,31.6,13.8,34.7,24.5,10.4,91,76,53,30.26,29.85,21,6,21,0.03
2014-3-10,57.2,47.0,37.8,41.9,37.2,33.6,87,69,53,29.85,29.68,26,6,26,0.00
2014-3-11,54.5,40.8,35.8,45.1,35.9,32.9,93,83,61,29.77,29.66,21,5,21,0.13
2014-3-12,35.8,28.4,18.9,33.1,24.1,13.1,92,84,73,30.10,29.64,28,12,28,0.08
2014-3-13,37.2,26.0,8.8,32.5,19.3,-99.9,88,77,55,30.19,29.88,23,2,23,0.11
2014-3-14,57.9,45.7,36.9,40.1,34.9,31.5,82,67,48,29.88,29.67,28,10,28,0.06
2014-3-15,40.5,35.2,30.0,32.9,28.2,23.0,87,76,67,30.22,29.86,26,6,26,0.00
2014-3-16,31.5,26.0,19.9,25.3,14.6,9.1,81,62,51,30.38,30.14,31,11,31,0.00
2014-3-17,40.8,28.0,12.7,26.4,17.8,6.3,81,66,50,30.14,29.83,14,4,14,0.00
2014-3-18,52.9,40.5,26.2,39.6,32.6,21.7,87,74,58,29.97,29.70,21,5,21,0.00
2014-3-19,46.9,42.9,36.3,44.8,38.8,29.1,92,86,72,29.98,29.61,19,7,19,0.00
2014-3-20,49.1,37.6,29.7,37.6,29.6,23.7,87,73,55,30.12,29.98,19,3,19,0.00
2014-3-21,59.2,46.1,30.4,44.8,37.4,25.9,91,73,56,30.03,29.70,24,5,24,0.00
2014-3-22,47.7,38.9,30.4,36.1,30.9,25.0,84,73,58,30.27,29.80,20,8,20,0.00
2014-3-23,31.8,26.9,18.3,25.3,18.9,12.4,81,72,60,30.45,30.27,20,6,20,0.00
2014-3-24,37.0,26.8,16.9,24.4,16.4,11.7,86,66,40,30.37,30.07,14,2,14,0.00
2014-3-25,31.5,28.0,24.6,24.6,16.4,9.0,88,62,46,30.21,29.97,22,7,22,0.00
2014-3-26,41.5,32.0,17.1,21.7,15.9,8.8,75,52,40,30.32,30.04,22,6,22,0.00
2014-3-27,53.4,42.8,36.0,47.1,34.6,20.7,86,73,48,30.04,29.51,36,11,36,0.00
2014-3-28,55.4,42.1,35.2,50.7,36.4,29.1,91,80,70,30.16,29.49,34,9,34,0.00
2014-3-29,38.3,34.8,29.3,33.6,30.6,25.2,88,84,78,30.22,30.11,19,6,19,0.00
2014-3-30,59.4,41.9,23.2,37.6,30.3,20.5,93,67,38,30.25,30.06,16,3,16,0.00
2014-3-31,70.3,54.9,36.7,40.8,36.8,30.6,80,53,29,30.09,29.78,40,8,40,0.00
2014-4-1,57.9,48.9,40.5,45.1,33.5,-99.9,69,56,45,30.06,29.71,26,5,26,0.00
2014-4-2,46.2,41.0,36.9,34.9,31.8,29.1,82,70,59,30.22,30.05,18,5,18,0.00
2014-4-3,44.4,41.0,38.1,41.7,37.6,-99.9,93,90,82,30.05,29.69,17,-4,17,0.03
2014-4-4,48.0,42.1,38.5,46.2,37.3,28.8,94,83,68,29.97,29.50,26,8,26,0.03
2014-4-5,52.0,41.2,33.3,31.6,26.7,21.6,77,58,34,30.28,29.97,22,5,22,0.00
2014-4-6,59.9,44.6,29.1,36.9,30.1,22.1,77,58,39,30.20,29.95,11,2,11,0.00
2014-4-7,50.2,41.3,32.9,38.8,33.8,27.9,84,75,61,29.95,29.62,12,3,12,0.00
2014-4-8,57.0,44.2,35.1,43.3,36.7,30.6,88,76,57,29.92,29.64,14,4,14,0.00
2014-4-9,65.8,49.5,30.4,43.7,34.8,27.9,94,62,31,30.08,29.89,18,4,18,0.00
2014-4-10,66.0,55.9,40.6,48.4,42.3,36.1,84,61,49,29.93,29.75,23,6,23,0.00
2014-4-11,72.9,54.1,33.6,48.4,34.5,30.0,93,55,22,30.09,29.92,16,2,16,0.00
2014-4-12,81.0,65.5,46.9,60.6,48.1,34.0,68,54,39,30.03,29.75,37,8,37,0.00
2014-4-13,74.7,64.4,52.0,61.5,56.5,45.0,90,76,55,29.83,29.52,31,8,31,0.22
2014-4-14,65.7,43.8,32.2,61.0,39.6,-99.9,92,86,72,29.96,29.41,35,7,35,0.14
2014-4-15,40.1,33.5,28.9,29.8,22.9,18.7,91,66,47,30.22,29.96,22,7,22,0.08
2014-4-16,54.3,41.9,27.9,31.3,26.3,19.9,75,56,38,30.37,30.15,24,7,24,0.00
2014-4-17,67.3,53.8,39.9,44.6,37.1,27.9,65,54,43,30.25,30.15,25,6,25,0.00
2014-4-18,52.9,45.4,37.8,43.0,38.0,30.0,83,75,65,30.40,30.21,22,6,22,0.00
2014-4-19,70.7,52.9,32.7,45.7,38.0,28.4,90,60,35,30.39,30.22,14,4,14,0.00
2014-4-20,80.2,62.1,44.2,47.3,39.3,28.9,59,44,29,30.27,30.04,19,5,19,0.00
2014-4-21,79.7,64.2,52.2,59.0,51.3,40.6,92,65,42,30.04,29.82,18,5,18,0.38
2014-4-22,61.0,47.8,37.6,59.0,37.9,30.0,93,69,55,30.07,29.80,27,9,27,0.00
2014-4-23,47.7,42.3,37.0,36.9,33.4,30.2,78,71,63,30.22,30.02,19,7,19,0.00
2014-4-24,65.1,55.5,43.5,42.6,36.7,30.2,85,53,32,30.08,29.67,24,7,24,0.00
2014-4-25,72.5,58.1,45.3,48.6,43.2,35.6,90,61,32,29.89,29.62,20,5,20,0.11
2014-4-26,58.1,47.0,39.2,46.8,37.8,34.3,86,71,58,30.10,29.83,24,8,24,0.00
2014-4-27,69.3,54.9,41.5,45.5,39.7,34.2,86,59,41,30.07,29.85,25,7,25,0.00
2014-4-28,60.1,52.9,48.6,51.8,44.0,33.8,90,73,50,29.86,29.58,24,9,24,0.19
2014-4-29,72.3,58.9,50.2,59.9,51.4,47.5,94,78,49,29.69,29.50,27,6,27,0.11
2014-4-30,59.4,51.6,43.3,51.8,46.3,36.9,94,82,71,29.85,29.69,17,4,17,0.02
2014-5-1,54.7,48.1,44.8,46.4,43.4,40.6,91,84,71,29.84,29.73,24,7,24,0.06
2014-5-2,54.9,50.8,46.8,47.8,45.5,44.1,92,82,71,29.90,29.75,18,5,18,0.06
2014-5-3,70.3,58.8,47.5,49.5,43.7,39.6,86,60,36,29.88,29.67,27,7,27,0.00
2014-5-4,60.3,52.4,40.8,41.7,35.0,27.5,62,52,40,30.14,29.86,20,6,20,0.00
2014-5-5,64.0,51.6,45.1,45.5,39.2,31.3,87,63,45,30.05,29.93,20,5,20,0.19
2014-5-6,75.0,59.5,39.9,46.6,41.8,36.1,89,55,34,30.05,29.86,19,5,19,0.00
2014-5-7,88.3,71.1,55.9,66.4,52.9,36.5,69,53,43,29.95,29.78,21,5,21,0.00
2014-5-8,94.1,80.2,67.5,68.2,62.6,57.9,76,57,31,29.96,29.83,34,8,34,0.00
2014-5-9,79.5,69.2,56.3,69.8,59.8,45.7,94,74,49,29.88,29.76,31,8,31,1.11
2014-5-10,79.0,63.3,47.1,54.5,47.6,43.5,92,61,31,30.03,29.88,13,2,13,0.00
2014-5-11,86.9,69.6,53.8,64.8,56.4,43.9,91,65,45,30.04,29.86,24,4,24,1.36
2014-5-12,87.3,75.3,62.1,74.3,68.5,59.7,93,80,63,29.99,29.85,25,7,25,0.00
2014-5-13,76.6,65.1,55.6,70.3,60.2,48.9,94,84,74,30.14,29.87,16,4,16,0.63
2014-5-14,55.6,51.0,45.9,50.0,45.7,42.3,92,82,72,30.23,29.92,21,6,21,0.35
2014-5-15,52.3,45.1,37.4,46.0,40.5,33.8,94,85,64,30.09,29.83,26,7,26,0.30
2014-5-16,46.6,42.2,37.0,42.8,38.4,34.3,92,86,79,30.09,30.00,15,3,15,0.13
2014-5-17,62.4,50.3,40.5,46.4,38.9,34.9,92,67,40,30.20,30.06,10,2,10,0.03
2014-5-18,72.9,56.8,38.7,48.6,42.0,34.2,89,60,39,30.32,30.18,19,4,19,0.00
2014-5-19,74.5,61.4,44.2,52.0,45.1,38.5,84,58,38,30.29,29.99,23,4,23,0.00
2014-5-20,88.7,74.5,61.2,69.6,61.1,47.7,92,64,51,30.03,29.84,19,6,19,0.68
2014-5-21,88.0,74.5,65.5,74.8,64.7,51.3,94,74,42,29.98,29.82,20,2,20,0.00
2014-5-22,68.7,60.0,49.3,56.1,50.3,43.9,85,71,60,30.20,29.95,12,4,12,0.00
2014-5-23,68.2,56.1,46.0,57.7,47.7,41.5,92,75,57,30.27,30.10,17,3,17,0.00
2014-5-24,72.0,58.5,42.3,60.6,48.9,39.2,93,72,56,30.27,30.12,11,2,11,0.00
2014-5-25,84.7,64.0,47.8,66.7,52.0,44.1,92,68,35,30.20,29.98,10,1,10,0.00
2014-5-26,90.0,73.0,57.6,68.5,61.5,52.5,95,70,41,30.05,29.86,13,2,20,0.12
2014-5-27,84.6,72.4,64.0,71.4,66.6,61.3,97,83,60,29.93,29.84,15,2,18,0.61
2014-5-28,64.0,57.9,52.2,63.0,55.1,49.1,98,91,76,30.04,29.90,11,2,12,0.00
2014-5-29,74.5,62.0,51.8,66.4,56.9,49.6,98,84,62,30.11,30.02,17,2,17,0.00
2014-5-30,79.3,65.5,51.4,62.6,56.0,50.7,99,74,44,30.18,30.09,17,2,18,0.00
2014-5-31,88.9,72.0,54.5,62.2,57.2,52.0,98,65,29,30.18,30.04,14,1,15,0.00
2014-6-1,90.9,76.5,63.7,68.5,61.0,54.3,80,61,39,30.08,29.87,20,4,24,0.01
2014-6-2,84.4,76.2,69.8,72.0,66.9,61.9,91,74,51,29.92,29.77,27,5,31,0.25
2014-6-3,80.1,73.0,63.1,66.2,58.1,51.3,87,62,39,29.94,29.82,17,2,17,0.00
2014-6-4,66.6,61.6,52.9,61.2,56.2,50.5,96,84,57,29.90,29.74,13,2,14,0.71
2014-6-5,70.9,60.1,49.1,59.9,51.2,44.4,98,75,43,29.98,29.89,12,2,13,0.00
2014-6-6,78.1,64.5,47.8,57.0,47.3,34.7,98,60,24,30.01,29.93,11,1,12,0.00
2014-6-7,84.7,70.2,51.4,63.0,53.9,45.7,92,60,35,30.00,29.78,13,1,16,0.04
2014-6-8,65.1,55.4,51.4,62.8,52.0,47.8,95,88,82,30.03,29.78,19,4,20,0.40
2014-6-9,75.0,62.7,49.8,64.6,56.6,48.2,98,81,65,30.02,29.90,14,2,14,0.00
2014-6-10,69.4,63.8,57.0,64.8,60.7,55.0,97,90,76,29.91,29.70,10,1,11,0.40
2014-6-11,75.2,64.7,59.5,68.5,62.3,57.6,97,92,75,29.74,29.63,14,2,16,0.14
2014-6-12,81.1,69.4,58.6,70.0,61.4,52.2,98,78,57,29.83,29.71,15,2,15,0.00
2014-6-13,70.2,62.6,51.6,52.7,47.8,41.9,86,60,38,30.03,29.83,16,3,16,0.00
2014-6-14,80.2,65.0,46.8,50.9,47.0,42.1,94,57,29,30.12,29.97,13,2,14,0.00
2014-6-15,84.6,72.4,56.1,70.2,59.6,49.1,81,65,47,30.01,29.81,30,4,30,0.00
2014-6-16,90.0,78.8,63.9,70.7,66.5,62.1,96,68,47,30.04,29.88,12,2,12,0.00
2014-6-17,92.1,82.3,76.8,74.3,71.0,68.5,79,69,52,29.92,29.76,26,4,26,0.00
2014-6-18,86.7,73.3,60.6,76.1,68.4,58.6,97,85,63,30.01,29.82,25,3,25,0.83
2014-6-19,81.5,70.3,59.2,72.7,66.6,58.3,99,89,71,30.07,29.95,16,2,16,2.39
2014-6-20,83.8,72.2,61.3,73.6,68.4,60.4,98,88,64,30.01,29.89,12,2,13,0.28
2014-6-21,82.2,68.2,60.4,73.0,65.9,59.9,99,93,69,29.98,29.81,16,2,18,1.49
2014-6-22,77.4,68.2,62.4,71.8,65.9,61.9,99,93,78,29.91,29.82,9,1,9,0.00
2014-6-23,83.3,72.1,65.3,75.7,69.7,64.0,99,92,74,29.86,29.78,13,1,14,1.10
2014-6-24,82.8,73.0,69.1,74.5,70.3,68.2,98,92,70,29.87,29.81,11,1,11,0.27
2014-6-25,70.5,64.6,60.4,69.6,63.4,59.5,99,96,86,30.04,29.85,12,2,12,0.00
2014-6-26,71.1,63.6,58.6,66.2,61.7,58.1,99,94,80,30.09,29.99,10,2,10,0.00
2014-6-27,89.1,76.2,60.6,72.3,67.1,60.3,99,76,50,30.04,29.95,16,2,16,0.00
2014-6-28,84.9,75.4,69.3,77.2,70.8,66.7,97,86,66,30.03,29.91,18,2,25,0.47
2014-6-29,86.7,78.0,70.2,75.4,71.7,68.2,95,82,60,29.96,29.84,17,4,18,0.16
2014-6-30,86.2,76.4,65.5,77.0,71.8,64.9,98,86,70,29.92,29.59,35,4,41,0.82
2014-7-1,83.3,73.6,65.5,71.4,66.6,63.1,99,81,55,29.76,29.55,18,3,21,0.23
2014-7-2,72.5,65.0,57.6,66.6,59.5,55.0,96,83,61,30.01,29.75,13,2,13,0.05
2014-7-3,72.3,62.9,53.8,60.6,54.1,46.4,97,75,43,30.19,30.00,13,2,13,0.17
2014-7-4,76.5,65.0,51.4,64.0,55.4,50.0,96,74,44,30.29,30.19,12,1,12,0.00
2014-7-5,78.4,68.7,55.0,61.9,57.1,53.1,94,69,47,30.27,30.04,15,2,17,0.00
2014-7-6,85.8,75.1,63.7,75.2,67.3,59.0,87,77,61,30.04,29.71,23,4,23,0.00
2014-7-7,86.4,78.1,71.1,75.2,70.7,65.8,93,79,56,29.72,29.66,15,2,17,0.03
2014-7-8,83.5,75.7,65.7,71.6,64.4,58.1,94,70,44,29.80,29.55,19,3,26,0.04
2014-7-9,77.4,68.3,59.5,64.9,60.1,57.0,98,77,53,30.04,29.80,12,1,12,0.00
2014-7-10,76.8,66.3,54.7,63.9,55.9,48.9,99,73,40,30.17,30.04,11,1,11,0.00
2014-7-11,82.2,68.7,52.9,65.3,58.1,52.0,98,72,40,30.21,30.08,12,1,14,0.00
2014-7-12,78.6,73.0,68.2,75.2,69.1,62.4,97,88,76,30.12,29.83,18,2,19,0.44
2014-7-13,85.6,76.5,70.5,75.2,68.4,61.0,98,78,44,29.92,29.80,16,2,16,0.97
2014-7-14,80.8,70.5,60.6,69.6,62.6,52.7,94,77,57,29.87,29.75,16,2,16,0.40
2014-7-15,68.5,62.3,56.5,58.3,54.5,51.1,96,76,60,29.95,29.81,18,3,18,0.36
2014-7-16,67.8,61.0,53.4,59.9,55.3,50.0,98,83,55,30.04,29.94,14,2,15,0.00
2014-7-17,76.3,64.0,50.2,61.5,55.5,49.3,98,76,53,30.12,30.03,9,1,9,0.00
2014-7-18,78.6,67.9,56.1,61.9,57.1,52.3,96,71,41,30.18,30.08,10,1,11,0.00
2014-7-19,78.3,67.6,55.4,64.6,59.2,54.5,98,76,52,30.09,29.99,11,1,11,0.00
2014-7-20,81.9,70.3,58.6,67.6,62.7,57.4,97,79,50,30.06,29.99,8,1,10,0.00
2014-7-21,85.3,73.8,61.7,70.9,65.6,60.8,99,78,56,30.10,30.01,14,1,14,0.00
2014-7-22,88.2,77.5,64.2,75.4,70.1,63.1,97,79,61,30.06,29.90,20,3,22,0.00
2014-7-23,79.3,66.5,60.8,75.2,60.6,54.0,96,82,61,30.13,29.92,23,4,24,0.33
2014-7-24,71.4,64.7,54.1,61.7,56.8,52.0,93,77,54,30.14,30.03,13,2,14,0.00
2014-7-25,75.7,64.4,50.9,64.6,57.8,50.0,98,81,60,30.10,29.91,17,2,17,0.00
2014-7-26,82.0,72.4,63.9,73.4,67.2,60.6,96,84,73,29.91,29.76,11,1,11,0.00
2014-7-27,87.6,74.8,64.2,75.4,66.0,57.6,99,77,41,29.85,29.65,26,3,26,0.00
2014-7-28,65.7,62.2,57.7,58.6,54.2,49.1,89,75,58,30.07,29.84,26,4,26,0.00
2014-7-29,77.2,65.5,52.3,62.4,57.6,51.3,98,78,51,30.04,29.97,12,1,12,0.03
2014-7-30,78.1,66.4,57.0,64.4,60.2,56.1,98,82,58,30.03,29.97,12,1,12,0.00
2014-7-31,84.0,70.3,56.1,64.9,60.8,55.2,98,75,48,30.03,29.99,16,2,16,0.00
2014-8-1,81.9,68.6,60.6,66.9,62.6,57.7,98,83,54,30.10,30.02,18,1,18,0.09
2014-8-2,79.7,68.1,57.0,65.8,60.9,56.3,99,80,53,30.14,30.06,10,1,10,0.00
2014-8-3,84.9,69.0,56.8,70.9,63.4,55.9,99,85,50,30.14,30.05,14,1,14,0.58
2014-8-4,85.3,72.9,61.3,71.2,66.1,60.8,99,81,53,30.10,29.99,10,1,12,0.01
2014-8-5,78.6,70.7,63.9,71.1,67.3,62.4,98,90,73,30.04,29.98,9,1,11,0.19
2014-8-6,77.2,68.6,62.1,69.1,64.6,61.3,99,88,63,30.06,29.99,11,1,11,0.00
2014-8-7,80.8,69.7,57.9,64.9,61.1,57.4,98,77,48,30.09,30.01,11,1,11,0.00
2014-8-8,84.0,71.9,59.5,67.3,61.0,57.0,95,71,42,30.07,30.00,15,2,15,0.00
2014-8-9,79.5,71.8,61.9,66.7,61.8,55.4,83,71,52,30.08,30.01,13,2,14,0.00
2014-8-10,80.1,72.0,66.0,70.0,64.4,55.6,91,78,58,30.03,29.91,12,2,12,0.00
2014-8-11,79.2,72.3,67.3,70.3,67.9,64.9,96,87,67,29.91,29.74,16,2,17,0.61
2014-8-12,67.6,63.3,60.3,66.4,61.1,57.7,97,93,84,29.95,29.70,22,4,22,0.65
2014-8-13,79.0,66.8,55.0,66.2,59.6,54.5,99,80,52,30.03,29.94,10,1,11,0.00
2014-8-14,68.4,61.9,50.2,59.4,53.4,48.2,96,75,54,30.09,30.01,14,2,15,0.00
2014-8-15,77.7,61.8,45.7,58.3,51.4,45.0,98,73,39,30.10,29.96,10,1,11,0.00
2014-8-16,79.2,68.3,55.4,71.6,63.3,53.8,96,85,72,29.97,29.88,13,1,13,0.00
2014-8-17,75.9,67.5,63.3,69.6,65.7,62.4,99,94,75,29.95,29.90,12,2,12,0.00
2014-8-18,82.9,71.2,65.3,71.4,67.5,64.0,98,89,67,29.93,29.77,9,1,10,0.00
2014-8-19,82.0,73.6,66.6,73.8,68.9,65.7,98,86,67,29.78,29.68,23,3,23,0.03
2014-8-20,86.7,75.4,64.6,71.2,67.9,63.9,98,79,49,29.93,29.74,15,1,15,0.00
2014-8-21,82.2,72.9,68.2,77.2,71.0,66.6,98,94,84,29.99,29.86,20,1,20,2.04
2014-8-22,86.9,76.3,69.4,76.6,73.3,68.5,99,91,66,29.96,29.86,12,1,12,2.45
2014-8-23,85.6,73.8,67.8,78.3,71.6,67.3,99,93,73,30.03,29.84,14,1,34,0.77
2014-8-24,88.3,77.0,67.6,77.7,72.6,67.1,99,87,65,30.00,29.93,10,1,11,0.00
2014-8-25,89.8,74.8,69.1,81.9,72.2,66.4,98,92,63,30.06,29.92,18,2,21,0.35
2014-8-26,80.4,72.1,67.8,74.8,69.8,66.7,99,92,80,30.13,29.99,16,1,17,0.41
2014-8-27,77.2,69.8,63.0,68.4,64.4,60.3,98,84,67,30.12,30.06,16,2,16,0.00
2014-8-28,77.5,69.0,60.6,69.4,62.7,56.7,94,81,65,30.12,30.02,12,1,12,0.00
2014-8-29,83.8,74.1,68.5,76.6,69.2,64.4,93,85,74,30.02,29.86,14,3,17,0.01
2014-8-30,84.2,75.1,68.7,74.5,70.6,67.5,97,87,70,29.90,29.80,19,3,19,0.86
2014-8-31,85.5,73.7,65.3,74.3,69.4,64.6,99,88,62,29.93,29.83,12,1,12,0.00
2014-9-1,84.6,75.7,70.7,76.1,70.1,66.6,97,84,58,29.86,29.72,20,4,20,0.01
2014-9-2,82.0,73.7,64.9,71.6,67.6,63.9,96,82,58,29.95,29.81,10,1,11,0.01
2014-9-3,84.2,72.1,60.1,68.2,64.1,59.5,99,78,50,30.02,29.94,10,1,14,0.00
2014-9-4,83.1,73.7,68.4,73.9,68.7,64.0,93,85,72,30.04,29.82,16,3,20,0.08
2014-9-5,89.8,77.8,65.7,78.3,72.2,64.4,97,84,66,30.02,29.86,17,3,18,0.74
2014-9-6,70.9,65.1,54.7,64.2,58.0,50.7,96,79,52,30.17,30.01,15,2,16,0.00
2014-9-7,76.8,63.7,51.4,62.4,55.3,50.5,99,77,44,30.21,30.11,9,1,10,0.00
2014-9-8,78.3,65.1,53.1,62.4,57.2,52.2,99,78,50,30.14,30.00,10,1,11,0.00
2014-9-9,80.1,68.9,59.5,69.8,62.8,56.5,92,81,68,30.01,29.85,13,2,13,0.00
2014-9-10,79.3,70.5,59.4,74.1,66.9,55.4,98,89,76,29.85,29.54,18,4,29,1.13
2014-9-11,59.2,55.0,52.7,55.4,50.8,48.9,90,86,79,30.26,29.83,18,4,18,0.00
2014-9-12,61.9,54.1,48.6,52.7,48.7,46.2,96,83,61,30.31,30.19,19,3,20,0.12
2014-9-13,57.9,50.1,43.2,49.3,45.7,42.1,96,85,68,30.36,30.24,18,4,21,0.03
2014-9-14,66.6,53.3,41.2,51.6,46.6,40.1,99,81,48,30.34,30.18,9,1,17,0.00
2014-9-15,59.4,53.5,46.8,55.0,51.7,45.7,98,93,82,30.20,30.07,10,1,11,0.06
2014-9-16,66.7,57.9,47.8,56.3,51.0,46.2,96,79,51,30.20,30.08,12,1,13,0.00
2014-9-17,70.2,56.1,45.1,54.9,48.9,44.4,99,79,48,30.09,29.97,10,1,11,0.00
2014-9-18,70.9,57.2,44.4,58.3,51.7,43.7,99,84,54,30.15,30.03,12,1,15,0.00
2014-9-19,74.8,62.2,52.0,57.6,52.2,48.2,97,72,41,30.18,29.95,14,2,17,0.00
2014-9-20,81.3,67.0,58.5,70.0,62.0,51.8,98,84,67,29.96,29.72,22,3,24,0.13
2014-9-21,68.4,61.1,56.1,67.5,55.1,45.5,98,81,68,30.11,29.67,20,5,23,0.24
2014-9-22,63.0,55.3,47.5,50.9,46.6,41.9,95,73,48,30.29,30.10,12,2,15,0.00
2014-9-23,72.9,57.3,43.5,56.1,49.4,42.8,98,78,48,30.36,30.27,7,1,9,0.00
2014-9-24,76.1,60.5,48.0,57.9,52.5,47.1,99,78,42,30.37,30.25,9,1,9,0.00
2014-9-25,77.4,62.2,51.4,61.5,55.8,50.4,98,81,51,30.30,30.20,8,1,8,0.00
2014-9-26,80.1,64.0,51.6,63.0,56.4,50.7,98,79,43,30.26,30.19,10,1,11,0.00
2014-9-27,78.3,64.3,54.3,64.4,58.8,53.4,98,84,53,30.25,30.14,7,1,10,0.00
2014-9-28,76.1,63.2,52.5,62.8,57.6,51.6,99,84,55,30.16,30.04,9,1,11,0.00
2014-9-29,81.7,64.2,49.6,65.7,56.8,48.9,99,80,48,30.04,29.89,18,1,18,0.00
2014-9-30,59.2,55.3,51.6,54.1,50.1,46.9,93,83,74,30.03,29.97,18,3,18,0.00
2014-10-1,71.4,57.7,43.0,56.8,50.3,41.9,98,78,55,30.04,29.90,13,2,15,0.00
2014-10-2,74.8,66.1,59.2,69.1,62.8,52.9,98,90,71,29.91,29.62,12,2,15,1.49
2014-10-3,64.9,56.9,45.9,64.4,52.3,34.3,98,85,65,29.79,29.43,20,4,23,0.50
2014-10-4,46.9,42.6,37.4,41.4,35.7,30.2,91,77,60,29.80,29.70,17,3,21,0.02
2014-10-5,55.8,47.6,37.9,44.8,39.0,33.3,89,73,47,29.78,29.65,23,2,23,0.00
2014-10-6,63.1,51.8,42.4,51.6,43.7,37.2,94,76,43,29.70,29.57,21,2,22,0.00
2014-10-7,67.8,54.0,42.4,57.9,47.5,39.6,94,80,49,29.85,29.63,16,2,19,0.02
2014-10-8,65.5,53.6,44.8,46.8,41.2,33.8,94,67,34,30.04,29.85,19,2,19,0.00
2014-10-9,57.9,51.8,41.4,45.5,41.5,37.0,92,69,51,30.14,29.99,13,1,13,0.00
2014-10-10,59.0,48.5,37.8,45.9,41.0,36.7,97,77,48,30.19,30.11,14,2,14,0.00
2014-10-11,59.5,46.2,34.5,42.6,37.5,32.4,98,75,38,30.27,30.15,11,1,12,0.00
2014-10-12,64.4,51.6,36.9,54.1,43.7,35.2,96,76,50,30.17,29.88,15,2,16,0.13
2014-10-13,71.2,64.2,55.2,67.8,62.1,54.1,98,93,81,29.88,29.54,17,2,18,0.14
2014-10-14,68.4,61.8,55.0,62.6,59.5,54.1,97,92,78,29.63,29.46,21,2,21,0.74
2014-10-15,56.5,55.1,53.4,55.9,54.5,52.5,98,98,97,29.80,29.62,14,2,14,0.67
2014-10-16,57.4,55.1,52.2,56.1,53.4,50.7,98,94,86,29.84,29.68,13,2,16,0.00
2014-10-17,62.8,54.8,48.4,54.0,50.2,45.7,98,85,70,29.85,29.57,18,4,19,0.03
2014-10-18,51.1,48.5,45.7,45.5,43.1,38.3,92,82,74,30.20,29.85,18,5,18,0.20
2014-10-19,56.1,47.2,34.5,45.9,40.9,33.4,98,80,59,30.24,29.95,16,2,16,0.00
2014-10-20,60.1,53.6,48.9,52.0,48.4,45.5,91,83,72,29.98,29.81,15,4,17,0.00
2014-10-21,52.9,50.1,39.6,49.3,44.5,37.4,93,81,70,30.26,29.97,16,4,20,0.04
2014-10-22,54.0,42.0,32.5,41.7,37.2,31.6,98,85,58,30.39,30.24,12,1,12,0.01
2014-10-23,60.6,47.1,35.8,47.3,41.5,35.1,99,83,55,30.29,30.09,12,1,12,0.01
2014-10-24,66.6,56.0,50.5,54.5,49.8,45.0,93,80,61,30.09,29.93,12,1,12,0.00
2014-10-25,73.0,61.2,49.8,57.7,45.4,31.3,98,63,25,29.95,29.88,18,3,18,0.00
2014-10-26,63.0,54.1,44.4,42.6,37.1,28.2,80,54,29,30.02,29.88,13,2,14,0.00
2014-10-27,77.7,64.7,48.6,62.6,50.8,35.1,82,61,50,29.88,29.59,26,5,28,0.00
2014-10-28,68.9,57.6,47.1,59.7,45.6,36.5,94,66,43,29.97,29.65,21,4,22,0.31
2014-10-29,48.0,45.6,42.4,37.6,35.9,33.8,79,69,61,30.15,29.96,16,2,17,0.00
2014-10-30,53.8,43.5,32.4,39.0,36.2,30.9,97,77,55,30.17,30.04,12,1,12,0.00
2014-10-31,46.0,40.4,35.4,41.7,35.0,26.1,93,81,60,30.31,30.01,44,11,44,0.50
2014-11-1,42.3,37.8,28.9,31.5,28.8,25.7,93,70,59,30.45,30.30,28,7,32,0.01
2014-11-2,52.0,39.1,24.6,32.0,27.2,23.4,97,67,36,30.46,30.22,18,3,18,0.00
2014-11-3,64.8,54.2,41.2,44.6,35.6,28.2,65,50,37,30.22,29.96,27,5,27,0.00
2014-11-4,58.8,50.3,41.4,51.8,43.4,37.2,95,78,45,30.10,29.91,22,5,23,0.03
2014-11-5,63.1,48.9,33.3,45.5,38.9,32.0,97,71,44,30.17,29.88,17,3,18,0.00
2014-11-6,49.1,44.5,40.6,45.7,38.4,30.0,92,79,65,30.19,29.76,34,9,36,0.02
2014-11-7,46.9,41.0,37.4,33.4,30.8,28.2,74,67,55,30.21,29.85,17,4,18,0.00
2014-11-8,47.5,42.6,37.6,39.7,33.8,28.2,85,71,56,29.96,29.75,27,4,28,0.01
2014-11-9,49.6,42.0,31.5,37.4,32.2,26.8,84,69,53,29.97,29.79,23,4,25,0.00
2014-11-10,63.5,51.8,41.2,46.6,41.7,36.5,86,69,52,29.85,29.57,31,5,31,0.00
2014-11-11,56.1,44.7,33.3,46.4,38.3,24.8,94,79,66,30.14,29.61,24,6,25,0.31
2014-11-12,33.6,30.0,27.3,25.0,20.6,15.6,73,68,61,30.32,30.14,16,4,16,0.00
2014-11-13,31.1,27.7,25.7,20.3,18.5,16.7,79,68,57,30.33,30.29,12,4,15,0.00
2014-11-14,31.6,25.9,17.8,22.5,18.3,14.4,87,73,59,30.41,30.32,10,2,15,0.00
2014-11-15,33.1,25.2,16.3,21.7,17.5,13.6,92,73,55,30.44,30.24,12,2,12,0.00
2014-11-16,31.8,29.0,22.5,27.3,24.8,19.9,92,84,77,30.24,29.92,12,2,13,0.00
2014-11-17,26.8,18.5,12.6,20.8,9.8,4.5,82,69,48,30.02,29.85,18,6,22,0.00
2014-11-18,22.1,16.1,11.7,9.3,7.2,5.5,80,68,52,30.21,30.02,21,6,24,0.00
2014-11-19,35.1,25.0,16.3,23.5,15.6,8.1,77,68,57,30.16,29.79,26,6,26,0.00
2014-11-20,30.0,23.5,18.5,15.3,11.0,6.1,80,60,39,30.34,30.04,23,5,23,0.00
2014-11-21,34.9,24.9,11.5,17.4,11.4,5.4,81,57,35,30.53,30.24,20,4,21,0.00
2014-11-22,52.5,43.2,33.1,48.2,39.4,17.1,95,87,50,30.24,29.88,21,6,22,0.22
2014-11-23,52.2,50.3,47.1,50.7,47.7,43.7,98,91,82,29.90,29.09,18,4,18,0.95
2014-11-24,50.7,38.5,28.2,50.2,36.4,23.9,98,92,83,29.85,29.07,31,6,32,0.49
2014-11-25,30.7,25.9,23.2,24.8,20.7,18.3,87,81,71,30.25,29.85,20,4,21,0.00
2014-11-26,28.9,26.3,23.5,23.9,21.6,20.1,88,82,75,30.23,30.14,9,1,10,0.00
2014-11-27,30.7,26.8,20.3,27.5,21.0,13.5,91,79,66,30.44,30.21,14,4,17,0.00
2014-11-28,32.9,26.8,17.2,27.1,20.5,12.6,85,77,69,30.42,29.95,18,4,19,0.00
2014-11-29,53.6,43.2,30.7,50.5,38.3,26.4,92,83,70,29.95,29.65,31,7,31,0.00
2014-11-30,57.2,45.5,31.3,53.4,43.3,27.9,96,92,80,30.29,29.67,23,6,24,0.01
2014-12-1,31.3,25.5,20.1,27.9,19.0,14.2,87,76,61,30.65,30.28,26,7,26,0.00
2014-12-2,33.4,27.8,19.6,29.8,23.4,14.7,94,84,75,30.58,30.11,15,3,15,0.00
2014-12-3,39.9,30.7,23.2,28.0,22.8,19.8,90,74,46,30.40,30.11,18,3,18,0.00
2014-12-4,36.0,30.6,22.6,27.3,23.6,19.4,88,75,61,30.45,30.29,10,2,11,0.00
2014-12-5,39.7,36.1,33.4,36.0,32.7,27.0,93,87,77,30.30,30.17,11,2,11,0.00
2014-12-6,41.0,38.0,30.6,37.2,32.7,23.2,90,81,69,30.65,30.22,22,7,23,0.00
2014-12-7,38.7,31.9,24.8,28.8,24.8,20.1,85,75,61,30.68,30.32,17,3,18,0.00
2014-12-8,37.6,35.2,32.2,36.9,32.8,28.0,97,91,81,30.32,30.02,16,3,16,0.24
2014-12-9,39.6,37.0,34.3,37.6,34.6,30.6,97,91,81,30.37,30.08,22,7,22,0.06
2014-12-10,36.7,35.0,33.6,32.0,29.7,27.5,93,81,74,30.39,30.25,18,5,18,0.00
2014-12-11,35.1,29.9,24.3,30.2,25.1,22.5,93,83,68,30.31,30.23,19,3,19,0.00
2014-12-12,34.5,28.5,20.7,33.3,27.0,19.2,96,94,92,30.38,30.26,7,1,9,0.00
2014-12-13,51.1,42.7,34.7,44.4,39.8,33.1,95,90,77,30.29,30.10,8,2,13,0.00
2014-12-14,53.6,47.6,45.3,48.6,45.4,43.3,97,92,83,30.13,30.03,16,3,19,0.00
2014-12-15,46.9,44.3,41.7,44.8,43.1,40.6,98,95,87,30.03,29.67,20,5,20,0.07
2014-12-16,45.0,41.1,32.5,44.4,39.5,27.3,98,94,81,30.13,29.65,21,4,23,0.07
2014-12-17,32.5,27.6,26.1,27.7,22.3,19.8,85,80,75,30.33,30.13,17,4,18,0.00
2014-12-18,28.0,26.3,23.2,22.8,20.8,19.0,87,80,74,30.35,30.26,10,2,10,0.00
2014-12-19,33.1,31.0,27.3,28.0,25.9,22.8,88,81,77,30.36,30.29,9,2,10,0.00
2014-12-20,34.5,32.1,30.4,28.6,27.2,25.3,87,82,75,30.32,30.27,10,1,11,0.00
2014-12-21,36.9,32.7,30.7,30.9,28.9,27.7,90,86,79,30.29,30.06,14,3,15,0.00
2014-12-22,41.5,35.9,29.7,40.5,33.5,26.8,96,91,85,30.06,29.62,17,4,19,0.17
2014-12-23,51.3,45.4,41.2,47.3,42.1,38.5,98,89,69,29.78,29.58,24,3,24,0.14
2014-12-24,42.1,39.1,36.3,40.5,37.9,34.3,97,95,91,29.72,29.48,16,2,16,0.46
2014-12-25,41.7,37.4,34.7,35.4,33.5,31.1,91,86,76,30.07,29.66,21,5,24,0.00
2014-12-26,51.3,43.7,34.3,44.2,39.1,32.2,93,84,71,30.10,30.02,19,4,19,0.00
2014-12-27,49.5,42.2,34.2,47.7,39.0,28.0,97,88,77,30.11,29.95,24,5,24,0.02
2014-12-28,34.5,29.5,21.9,28.4,22.8,17.1,88,76,51,30.28,30.09,13,2,13,0.00
2014-12-29,33.4,27.5,20.5,28.2,21.4,18.1,94,78,65,30.50,30.27,15,3,15,0.00
2014-12-30,28.0,21.1,13.5,21.4,11.2,0.9,86,66,45,30.68,30.49,20,5,20,0.00
2014-12-31,19.0,14.4,7.0,8.1,2.9,-2.0,70,60,46,30.63,30.21,23,4,23,0.00
2015-1-1,30.7,23.5,15.6,18.5,13.2,7.0,74,65,53,30.21,30.04,23,5,23,0.00
2015-1-2,36.0,27.0,16.7,24.4,20.4,14.5,93,77,59,30.37,30.18,8,1,8,0.00